Location: ???????
(55.4362°N, 38.1183°E)
Time: 23:00:29
(UTC+00:00)

NOSS 2-3 (E) - Visible Passes

Search period start: 23 October 2021 00:00
Search period end: 02 November 2021 00:00
Orbit: 544 x 1667 km, 63.3° (Epoch: 21 October)

Date Brightness Start Highest point End Pass type
(mag) Time Alt. Az. Time Alt. Az. Time Alt. Az.
23 Oct 7.1 00:44:35 11° S 00:44:35 11° S 00:44:48 10° S visible
23 Oct 3.7 16:23:18 10° SSW 16:27:21 56° SE 16:28:04 50° E visible
23 Oct 5.9 18:13:54 10° W 18:15:31 22° W 18:15:31 22° W visible
24 Oct 4.2 15:38:53 10° S 15:42:39 35° SE 15:44:53 22° ENE visible
24 Oct 4.5 17:28:47 10° WSW 17:32:19 51° WNW 17:32:19 51° WNW visible
25 Oct 4.9 14:54:52 10° SSE 14:58:05 22° ESE 15:01:37 10° ENE visible
25 Oct 3.7 16:43:47 10° SW 16:48:03 79° NW 16:49:03 55° NE visible
25 Oct 6.2 18:35:04 10° WNW 18:36:29 19° WNW 18:36:29 19° WNW visible
26 Oct 3.6 15:58:58 10° SW 16:03:07 72° SE 16:05:41 28° ENE visible
26 Oct 5.2 17:49:53 10° W 17:53:07 37° NW 17:53:07 37° NW visible
27 Oct 4.0 15:14:22 10° SSW 15:18:20 46° SE 15:22:16 14° ENE visible
27 Oct 4.5 17:04:43 10° W 17:09:02 50° NNW 17:09:42 47° N visible
27 Oct 6.6 18:56:11 10° WNW 18:57:07 15° WNW 18:57:07 15° WNW visible
28 Oct 4.6 14:30:06 10° S 14:33:41 29° ESE 14:37:51 10° ENE visible
28 Oct 4.0 16:19:38 10° WSW 16:23:55 66° NNW 16:26:13 32° NE visible
28 Oct 5.8 18:11:03 10° WNW 18:13:38 28° NW 18:13:38 28° NW visible
29 Oct 3.6 15:34:42 10° SW 15:38:56 90° E 15:42:43 18° NE visible
29 Oct 5.0 17:25:52 10° W 17:30:08 39° NNW 17:30:08 39° NNW visible
29 Oct 6.8 19:17:09 10° WNW 19:17:33 12° NW 19:17:33 12° NW visible
30 Oct 3.8 14:49:58 10° SSW 14:54:03 61° SE 14:59:04 10° NE visible
30 Oct 4.7 16:40:40 10° W 16:45:00 45° NNW 16:46:34 35° NNE visible
30 Oct 6.2 18:32:06 10° WNW 18:34:00 22° NW 18:34:00 22° NW visible
31 Oct 4.3 15:55:32 10° WSW 15:59:50 56° NNW 16:03:00 23° NE visible
31 Oct 5.4 17:47:00 10° WNW 17:50:25 33° NNW 17:50:25 33° NNW visible
01 Nov 3.9 15:10:30 10° WSW 15:14:46 74° NW 15:19:24 13° NE visible
01 Nov 5.0 17:01:50 10° WNW 17:06:14 38° N 17:06:49 36° N visible
01 Nov 6.5 18:53:00 10° NW 18:54:14 18° NW 18:54:14 18° NW visible
